CAPE
0 0 0 0 0 0 0 0 0 0 0 0 0 0 0 0 0 0 9 96 41 11 0 0 0 0 0 0 0 0 0 0 0 0 0 0 0 0 0 0 0 0 0 0 0 0 0 0 0
0 0 0 0 0 0 0 0 1 1 3 0 0 0 0 2 0 0 0 50 12 4 0 0 0 0 0 0 0 0 0 0 0 0 0 0 0 0 0 0 0 0 0 0 0 0 0 4 3
0 0 0 0 0 0 0 0 2 1 1 0 0 0 0 0 10 3 4 145 124 6 0 0 0 0 0 0 0 0 0 0 0 0 0 0 0 0 0 0 0 0 0 14 43 41 22 8 278
0 0 0 0 0 0 0 0 7 1 0 0 0 0 0 0 0 0 116 139 141 111 0 0 0 0 0 0 0 0 0 0 0 0 0 0 0 0 0 0 0 0 0 36 122 216 185 146 139
0 0 0 0 0 0 0 0 18 28 4 2 0 0 0 0 3 0 51 147 42 87 6 0 0 0 0 0 0 0 0 0 0 0 0 2 11 16 33 66 119 161 283 350 402 427 341 278 268
0 0 0 0 0 0 0 0 8 67 39 5 0 0 0 0 0 0 0 23 40 5 39 14 0 0 0 0 0 0 0 0 0 4 0 16 20 17 33 120 266 478 556 569 537 511 537 467 270
0 0 0 0 0 0 0 0 0 0 0 0 0 0 0 0 0 0 0 0 63 32 82 199 4 0 0 0 0 0 0 0 1 15 24 42 38 54 88 147 437 656 481 289 220 237 237 366 342
0 0 0 0 0 0 0 0 0 0 0 0 0 0 0 1 0 0 0 0 0 152 225 287 246 97 0 0 0 0 0 1 32 54 56 84 125 107 83 125 440 342 181 26 24 41 48 116 327
0 0 0 0 0 0 0 0 0 0 0 0 0 0 0 0 0 0 0 0 0 92 253 424 340 190 69 0 21 0 21 78 218 152 164 274 231 100 67 318 589 399 262 129 89 23 0 19 178
13 0 0 0 0 0 0 0 0 0 0 0 0 0 0 0 0 0 0 0 0 0 224 300 391 258 284 78 7 34 78 346 492 337 308 325 181 32 121 333 760 499 384 209 144 0 0 27 35
0 0 0 0 0 0 0 0 0 0 0 0 0 0 0 0 0 0 0 0 0 0 21 484 351 361 379 287 280 184 98 274 570 321 300 283 147 178 344 295 444 384 379 125 87 50 7 22 90
0 0 0 0 0 0 0 0 0 0 0 0 0 0 0 0 0 0 0 0 0 0 0 345 473 561 563 401 274 316 196 210 238 285 350 330 341 583 487 423 435 392 279 137 70 180 130 39 206
0 0 0 0 0 0 0 0 0 0 0 0 0 0 0 0 0 0 0 0 0 0 0 17 571 760 758 470 544 639 568 574 523 413 456 486 510 623 421 258 351 450 349 292 242 226 170 183 207
0 0 0 0 0 0 0 0 0 0 0 0 0 0 0 0 0 0 0 0 0 0 0 3 328 780 900 655 653 708 748 822 735 857 746 665 576 571 430 568 759 579 423 364 253 257 148 29 0
0 0 0 0 0 0 0 0 0 0 0 0 0 0 0 0 0 0 0 0 0 10 0 2 290 542 740 762 639 839 972 982 983 868 902 878 768 698 555 706 645 690 647 521 377 251 273 117 5
0 0 0 0 0 0 0 0 0 0 0 0 0 0 0 0 0 0 0 1 11 1 0 0 306 492 665 866 954 882 1081 1097 1031 833 960 900 804 619 641 648 575 680 805 721 477 199 118 46 22
0 0 0 0 0 0 0 0 0 0 0 0 0 0 0 0 0 0 0 0 11 0 0 26 280 435 723 838 1177 1248 1120 993 816 649 586 744 586 605 678 649 594 603 862 740 510 421 329 88 33
0 0 0 0 0 0 0 0 0 0 0 0 0 0 0 0 0 0 0 0 0 0 0 27 171 536 984 1402 1231 1407 1341 1024 719 571 424 485 590 645 686 713 781 831 846 642 451 347 291 293 119
0 0 0 0 0 0 0 0 0 0 0 0 0 0 0 0 0 0 0 0 0 0 0 0 241 841 1433 1690 1580 1253 1315 1070 804 527 510 580 603 724 833 716 652 838 635 445 443 454 332 164 72
0 0 0 0 0 0 0 0 0 0 0 0 0 0 0 0 0 0 0 0 0 0 26 266 649 1128 1675 1706 1730 1436 1308 930 671 611 423 552 568 563 621 672 528 577 449 365 338 305 214 153 57
0 0 0 0 0 0 0 0 0 0 0 0 0 0 0 0 0 0 0 0 0 32 395 955 1365 1544 1798 1900 1774 1550 1168 795 567 480 404 424 499 594 547 418 416 390 285 159 191 242 207 84 39
0 0 0 0 0 0 0 0 0 0 0 0 0 0 0 0 0 0 0 0 0 447 919 1247 1757 1878 2006 1957 1709 1436 1031 743 568 506 540 548 574 320 283 270 263 227 165 199 212 257 201 170 61
0 0 0 0 0 0 0 0 0 0 0 0 0 0 0 0 0 0 0 0 293 776 955 1099 1744 1972 1908 1726 1427 1085 826 555 422 352 336 374 254 275 221 192 153 67 126 154 144 170 162 114 87
0 0 0 0 0 0 0 0 0 0 0 0 0 0 0 0 0 0 59 501 743 907 955 1217 1595 1672 1616 1385 811 438 400 358 304 160 137 200 243 177 57 9 1 3 9 79 244 93 50 55 97
0 0 0 0 0 0 0 0 0 0 0 0 0 0 8 26 27 209 363 676 941 1102 1264 1306 1371 1299 922 590 471 382 404 314 159 102 126 122 140 107 32 0 0 0 135 319 195 39 67 146 67
0 0 0 0 0 0 0 0 0 0 0 0 0 0 154 206 338 519 683 978 1257 1354 1336 1153 926 792 493 462 386 295 179 140 68 27 141 100 53 8 0 0 0 86 234 283 260 194 122 154 134
0 0 0 0 0 0 0 0 0 0 0 0 0 1 283 431 592 609 797 1169 1238 1131 967 746 591 505 332 468 419 219 120 140 211 20 0 0 0 0 0 0 5 74 198 117 104 36 43 138 104
0 0 0 0 0 0 0 0 0 0 0 0 0 50 388 504 603 668 947 1088 958 851 732 580 510 398 359 366 298 262 294 162 47 19 14 0 0 3 0 0 4 16 76 74 58 8 97 119 78
0 0 0 0 0 0 0 0 0 0 0 0 0 145 373 500 574 732 905 870 812 768 643 541 438 392 425 322 184 144 129 83 5 7 0 0 0 0 2 0 9 13 16 23 29 41 67 122 147
0 0 0 0 0 0 0 0 0 0 0 2 23 340 513 553 616 723 713 707 707 635 579 431 388 291 323 281 260 114 101 69 11 0 3 0 0 0 0 5 15 39 56 20 11 39 83 233 87
CIN
0 0 0 0 0 0 0 0 0 0 0 0 0 0 0 0 0 0 -174 -171 -265 -402 0 -1 0 0 0 0 0 0 0 0 0 0 0 0 0 0 0 0 0 0 0 0 0 0 0 0 0
0 0 0 0 0 0 0 0 -52 -23 -36 0 0 0 0 -20 0 0 0 -222 -272 -117 0 0 0 0 0 0 0 0 0 0 0 0 0 0 0 0 0 0 0 0 0 0 0 0 0 -7 -7
0 0 0 0 0 0 0 0 -12 -12 -16 0 0 0 0 0 -71 -52 -78 -264 -382 -179 0 0 0 0 0 0 0 0 0 0 0 0 0 0 0 0 0 0 0 0 0 -169 -127 -134 -117 -22 -3
0 0 0 0 0 0 0 0 -87 -46 0 0 0 0 0 0 0 0 -181 -264 -324 -408 0 -16 0 0 0 0 0 0 0 0 0 0 0 0 0 0 0 0 0 0 0 -94 -22 -2 -10 -19 -4
0 0 0 0 0 0 0 0 -45 -32 -13 -7 -0 0 0 0 -76 0 -167 -200 -224 -354 -228 0 0 0 0 0 0 0 0 0 0 0 0 -90 -337 -314 -261 -208 -140 -85 -24 -1 0 -0 -1 -3 -3
0 0 0 0 0 0 0 0 -15 -8 -20 -39 0 0 0 0 0 0 0 -157 -202 -204 -374 -604 0 0 0 0 0 0 0 0 0 -371 -15 -366 -347 -328 -289 -222 -128 -39 -10 0 0 0 0 -1 -10
0 0 0 0 0 0 0 0 0 0 0 0 0 0 0 0 0 0 0 0 -188 -197 -259 -364 -372 0 0 0 0 0 0 0 -142 -448 -420 -375 -348 -325 -290 -233 -109 -34 -45 -77 -69 -49 -30 -2 -6
0 0 0 0 0 0 0 0 0 0 0 0 0 0 0 -46 0 0 0 0 0 -191 -260 -315 -432 -603 0 0 0 0 -3 -82 -453 -431 -419 -378 -338 -323 -313 -273 -151 -137 -185 -134 -177 -169 -183 -127 -14
0 0 0 0 0 0 0 0 0 0 0 0 0 0 0 0 0 0 0 0 0 -186 -258 -349 -394 -490 -600 0 -573 0 -483 -453 -409 -409 -388 -355 -351 -371 -350 -229 -144 -164 -210 -200 -168 -215 0 -280 -92
-155 0 0 0 0 0 0 0 0 0 0 0 0 -11 0 0 0 0 0 0 0 0 -213 -297 -384 -427 -530 -560 -193 -561 -506 -449 -411 -408 -393 -385 -396 -464 -315 -244 -132 -158 -182 -187 -153 0 0 -136 -196
0 0 0 0 0 0 0 0 0 0 0 0 0 0 0 0 0 0 0 0 0 0 -146 -274 -306 -375 -444 -449 -548 -571 -574 -525 -437 -448 -434 -424 -425 -363 -245 -258 -201 -198 -183 -209 -188 -213 -132 -146 -90
0 0 0 0 0 0 0 0 0 0 0 0 0 0 0 0 0 0 0 0 0 0 0 -229 -279 -313 -380 -371 -465 -498 -528 -544 -531 -486 -426 -410 -369 -257 -232 -219 -208 -197 -206 -197 -196 -138 -100 -94 -39
0 0 0 0 0 0 0 0 0 0 0 0 0 0 0 0 0 0 0 0 0 0 0 -111 -208 -240 -314 -356 -406 -420 -438 -447 -447 -421 -378 -365 -325 -239 -235 -246 -179 -163 -181 -142 -87 -68 -80 -40 -22
0 0 0 0 0 0 0 0 0 0 0 0 0 0 0 0 0 0 0 0 0 0 0 -95 -152 -200 -292 -288 -334 -349 -392 -426 -382 -330 -310 -311 -279 -224 -224 -161 -92 -88 -115 -89 -47 -23 -36 -74 0
0 0 0 0 0 0 0 0 0 0 0 0 0 0 0 0 0 0 0 0 0 -43 -1 -86 -128 -205 -205 -251 -271 -292 -328 -327 -305 -308 -285 -271 -244 -200 -177 -100 -73 -62 -79 -76 -55 -37 -32 -35 -46
0 0 0 0 0 0 0 0 0 0 0 0 0 0 0 0 0 0 0 -12 -48 -21 0 0 -121 -162 -181 -210 -236 -261 -262 -247 -263 -255 -217 -206 -192 -190 -134 -105 -81 -46 -29 -22 -38 -53 -48 -55 -50
0 0 0 0 0 0 0 0 0 0 0 0 0 0 0 0 0 0 0 0 -43 -13 0 -76 -128 -153 -163 -231 -216 -186 -185 -198 -201 -207 -201 -159 -168 -137 -97 -95 -69 -47 -20 -21 -30 -25 -26 -47 -60
0 0 0 0 0 0 0 0 0 0 0 0 0 0 0 0 0 0 0 0 0 0 0 -72 -118 -134 -178 -238 -243 -172 -155 -191 -209 -193 -191 -180 -136 -104 -78 -56 -28 -26 -19 -24 -31 -28 -20 -12 -25
0 0 0 0 0 0 0 0 0 0 0 0 0 0 0 0 0 0 0 0 0 0 0 0 -105 -181 -207 -227 -212 -200 -160 -177 -188 -184 -160 -140 -132 -65 -17 -19 -24 -28 -21 -26 -18 -4 -5 -19 -32
0 0 0 0 0 0 0 0 0 0 0 0 0 0 0 0 0 0 0 0 0 0 -68 -94 -120 -185 -223 -218 -241 -220 -163 -188 -205 -157 -172 -112 -90 -50 -25 -19 -18 -27 -22 -27 -19 -14 -16 -25 -32
0 0 0 0 0 0 0 0 0 0 0 0 0 0 0 0 0 0 0 0 0 -67 -85 -97 -163 -213 -239 -240 -186 -147 -154 -182 -186 -169 -173 -125 -75 -45 -31 -30 -33 -26 -30 -49 -34 -29 -30 -29 -38
0 0 0 0 0 0 0 0 0 0 0 0 0 0 0 0 0 0 0 0 0 -114 -155 -178 -206 -213 -197 -173 -144 -143 -170 -172 -165 -156 -109 -87 -81 -88 -50 -38 -37 -33 -42 -30 -28 -20 -22 -22 -32
0 0 0 0 0 0 0 0 0 0 0 0 0 0 0 0 0 0 0 0 -155 -210 -246 -259 -209 -166 -148 -142 -143 -153 -138 -162 -145 -160 -119 -77 -76 -52 -47 -43 -30 -50 -44 -30 -26 -23 -25 -30 -27
0 0 0 0 0 0 0 0 0 0 0 0 0 0 0 0 0 0 -132 -182 -223 -298 -316 -287 -205 -150 -149 -160 -216 -231 -189 -158 -152 -171 -138 -86 -60 -53 -52 -102 -31 -19 -38 -27 -12 -31 -34 -45 -40
0 0 0 0 0 0 0 0 0 0 0 0 0 0 -69 -175 -154 -156 -191 -241 -296 -313 -298 -269 -227 -204 -239 -263 -241 -222 -161 -148 -177 -139 -95 -56 -48 -50 -76 0 0 0 -19 -8 -19 -40 -28 -21 -49
0 0 0 0 0 0 0 0 0 0 0 0 0 0 -113 -115 -152 -208 -274 -304 -301 -278 -268 -281 -271 -271 -270 -251 -227 -195 -171 -175 -162 -151 -68 -61 -42 -23 0 0 0 -20 -12 -14 -19 -21 -19 -26 -23
0 0 0 0 0 0 0 0 0 0 0 0 0 -8 -94 -115 -172 -213 -242 -260 -268 -267 -305 -312 -301 -284 -270 -204 -153 -152 -196 -130 -56 -114 0 0 0 0 0 0 -28 -19 -19 -22 -23 -32 -42 -34 -29
0 0 0 0 0 0 0 0 0 0 0 0 0 -105 -127 -154 -203 -260 -271 -267 -273 -289 -290 -298 -272 -251 -199 -154 -128 -115 -85 -97 -100 -97 -73 0 0 -7 0 0 -23 -24 -49 -33 -30 -29 -33 -44 -49
0 0 0 0 0 0 0 0 0 0 0 0 0 -86 -127 -165 -242 -284 -283 -264 -272 -263 -264 -251 -226 -178 -126 -116 -124 -111 -103 -99 -124 -92 0 0 0 0 -3 0 -16 -21 -29 -19 -22 -34 -30 -28 -34
0 0 0 0 0 0 0 0 0 0 0 -7 -116 -112 -157 -210 -262 -286 -287 -288 -256 -237 -216 -204 -173 -147 -100 -76 -79 -138 -110 -82 -72 0 -8 0 0 0 0 -15 -14 -27 -20 -34 -39 -33 -23 -18 -25
Wind_Speed
18 16 15 15 15 14 15 15 25 22 18 20 19 18 21 21 17 14 14 14 15 13 12 12 13 13 14 13 14 15 16 17 17 17 18 18 18 18 18 18 17 15 14 14 14 15 17 17 17
16 12 16 17 15 17 19 21 14 18 17 18 23 20 16 18 17 14 13 13 14 12 11 11 12 12 12 12 13 13 14 15 15 16 16 17 17 18 18 17 17 16 14 14 14 14 15 16 17
16 18 18 16 15 13 16 22 18 15 24 20 22 20 16 11 14 12 10 11 15 14 11 10 11 11 11 12 12 12 13 13 14 14 15 15 16 16 17 17 17 16 15 14 15 16 15 16 16
13 16 20 16 20 18 23 33 17 18 14 25 27 12 14 14 14 13 12 12 13 12 11 9 10 10 10 10 11 11 11 11 12 13 14 14 14 15 16 16 16 16 15 16 16 16 17 18 19
17 18 21 22 27 24 33 32 7 9 18 7 16 4 13 14 14 14 12 10 9 8 8 9 11 10 9 9 9 10 9 9 9 10 11 12 13 14 15 16 15 15 15 14 15 18 21 22 22
16 19 24 28 35 34 32 30 20 3 16 8 18 10 13 10 13 12 12 7 6 5 5 8 11 10 9 8 8 8 7 7 7 7 8 9 11 13 16 16 15 14 14 14 14 16 18 20 23
20 26 28 29 37 40 37 30 26 26 20 20 18 15 9 8 11 9 10 9 3 4 4 4 7 10 8 8 8 7 7 6 5 5 5 7 8 11 13 14 14 14 14 13 13 13 14 17 19
20 25 34 32 34 44 35 33 30 27 22 21 20 17 18 11 11 11 11 17 14 1 1 4 4 6 8 6 7 8 7 6 5 3 3 4 5 8 10 12 13 13 13 13 11 11 10 12 14
24 35 40 38 36 40 37 37 34 32 20 25 27 22 30 36 34 22 18 18 13 3 2 3 4 4 7 8 7 8 8 7 6 4 2 1 4 6 8 11 10 11 12 12 12 12 11 11 11
31 42 43 39 42 40 37 35 43 38 32 30 34 35 43 38 32 27 24 22 22 21 8 6 5 6 6 7 6 7 8 7 7 6 3 1 2 5 8 11 7 9 11 11 12 12 13 13 13
33 48 39 43 42 43 45 46 43 43 41 34 37 25 34 17 22 25 25 26 26 24 14 7 7 8 8 7 6 5 6 7 8 8 6 3 2 4 6 10 10 11 12 12 12 12 12 11 10
43 42 42 43 40 47 50 48 48 45 44 43 42 43 33 27 33 27 27 28 27 24 22 12 9 9 9 7 7 6 5 8 9 9 7 5 3 3 4 10 10 10 11 11 12 12 9 8 7
40 43 41 42 42 44 48 51 52 53 48 47 46 46 46 43 36 32 29 27 27 26 20 12 9 11 11 9 8 7 6 6 6 6 7 6 4 3 5 8 10 11 11 11 13 12 8 5 7
45 46 47 44 44 45 46 50 49 48 43 49 51 51 49 45 42 39 33 30 28 26 20 12 8 10 10 11 9 9 7 6 5 5 5 6 3 2 6 9 10 12 13 12 14 16 12 10 11
48 54 52 53 49 47 40 59 48 46 45 47 45 49 45 42 41 33 29 32 30 23 14 12 8 10 11 12 11 10 8 6 5 5 6 5 4 2 6 10 14 15 15 15 16 16 14 13 14
43 47 58 54 48 47 33 70 45 47 51 54 58 52 46 39 30 29 33 35 24 13 14 14 11 11 12 13 11 10 8 7 5 5 4 4 3 2 7 12 15 16 17 18 19 18 16 15 15
40 49 50 55 34 37 31 64 48 51 53 51 43 34 28 28 28 23 17 23 18 17 18 15 14 13 12 12 11 8 6 5 4 3 2 2 2 3 7 12 14 16 18 19 20 17 17 18 17
39 38 42 51 38 38 40 51 55 56 47 40 39 29 27 29 26 21 17 23 23 19 19 17 16 14 11 10 9 8 6 5 3 4 4 3 2 5 9 12 14 17 19 20 19 17 16 17 18
42 41 46 44 42 47 49 49 49 53 48 40 36 30 28 29 22 21 22 21 20 23 22 21 16 12 11 9 9 9 7 5 5 3 4 2 3 7 10 13 16 17 17 18 18 16 15 17 17
44 49 50 44 38 40 44 43 41 40 39 33 33 30 36 32 25 23 20 27 28 23 22 18 12 9 10 8 7 6 4 3 3 3 3 2 4 9 13 14 16 16 17 16 14 11 14 15 13
39 40 45 48 44 51 49 51 48 51 49 45 46 41 30 21 20 20 21 22 22 22 18 12 8 7 7 5 4 1 1 2 2 3 3 5 8 12 13 14 15 16 13 10 9 8 8 11 12
49 37 40 44 42 43 39 53 37 47 36 33 21 20 22 18 17 17 17 18 19 10 7 6 5 3 3 2 3 3 1 1 2 4 5 6 10 12 14 15 16 14 11 10 10 9 8 8 9
54 37 44 42 41 45 42 35 34 15 21 35 42 14 14 17 19 16 14 10 7 4 3 3 2 1 1 5 4 3 2 2 3 6 8 9 11 13 14 13 12 11 11 11 12 12 11 8 6
44 41 44 44 43 47 26 21 42 25 14 21 12 15 22 14 17 15 6 3 3 3 3 3 3 2 4 5 4 4 4 5 5 6 8 9 11 12 12 10 10 11 11 12 12 13 12 12 13
41 41 40 41 40 32 26 31 45 32 22 12 9 8 15 15 15 11 6 4 4 4 5 4 4 5 7 7 6 6 6 5 6 8 9 10 11 12 11 10 11 11 12 12 12 12 12 13 15
42 41 38 36 33 42 43 34 30 33 31 10 16 5 9 11 11 11 8 5 6 7 6 7 8 8 8 8 7 8 8 8 9 11 9 9 9 11 10 12 12 12 12 12 13 12 11 13 16
45 51 43 45 39 40 32 29 43 40 37 10 13 4 6 8 9 11 11 7 7 8 8 11 12 11 10 10 9 8 10 10 9 11 11 11 11 11 11 12 13 13 13 13 12 12 12 13 16
45 41 39 43 43 43 35 37 28 28 9 16 3 6 8 10 10 12 11 11 11 11 14 14 12 12 12 10 10 9 10 11 11 11 11 12 12 12 12 13 14 14 13 12 11 11 13 14 17
40 48 44 40 40 39 36 31 33 24 9 4 3 9 11 11 11 12 12 14 14 15 15 14 13 13 12 11 10 11 11 11 12 12 12 12 12 12 12 13 15 14 13 14 13 12 13 15 17
42 46 46 43 43 40 36 34 21 14 7 6 5 10 11 10 12 13 14 13 15 14 15 14 13 14 13 12 12 12 12 12 13 12 12 13 12 13 14 15 14 15 16 17 14 13 14 16 18
Wind_Direction
279 284 281 287 297 302 304 325 281 298 331 339 338 329 333 354 349 1 79 69 66 69 89 103 106 103 96 85 78 75 74 70 66 62 57 52 50 45 39 34 31 27 18 9 356 343 333 327 323
281 294 289 288 295 291 290 250 349 358 303 325 310 290 6 13 41 53 49 62 60 62 80 98 110 108 101 92 87 83 83 77 70 64 57 53 50 44 38 34 28 21 15 5 357 347 337 330 324
278 279 284 288 292 301 306 289 337 343 308 327 304 320 357 17 41 44 52 51 46 45 65 81 106 106 105 102 99 95 93 84 74 63 57 54 50 43 36 30 21 15 9 1 347 336 336 329 324
288 283 283 293 285 300 291 271 332 342 325 319 257 358 12 24 16 30 63 54 43 46 67 84 105 111 114 111 108 107 103 92 78 68 59 54 48 42 34 28 19 16 8 355 342 333 322 319 320
281 287 284 285 279 287 268 277 338 357 349 345 202 36 7 20 42 36 45 41 37 41 62 98 125 119 125 126 122 121 112 98 89 77 63 54 47 38 31 23 18 16 11 4 349 332 318 312 305
294 290 283 278 270 268 271 274 329 311 333 358 335 355 355 37 20 26 20 23 36 50 76 101 135 135 129 138 140 135 126 115 106 88 65 56 44 33 24 21 17 13 11 7 357 345 331 316 304
285 281 278 281 271 260 268 293 308 312 319 331 334 341 357 4 20 29 21 17 19 89 94 108 135 155 150 147 155 157 151 144 132 104 74 56 42 30 25 23 19 16 12 10 3 352 341 328 316
282 286 276 278 278 262 280 288 291 311 318 316 349 335 328 358 5 7 14 5 3 165 138 167 160 156 168 167 169 174 176 174 165 144 106 50 39 30 24 19 18 16 13 10 7 359 353 340 328
277 273 271 274 279 277 283 282 290 298 324 298 308 327 316 297 307 325 333 346 3 1 280 222 199 191 181 181 181 186 195 196 193 192 176 47 24 18 15 12 15 13 11 9 8 0 353 345 336
263 268 272 272 272 278 282 289 275 287 307 304 298 298 295 296 302 316 317 332 339 339 299 251 232 229 204 199 200 204 205 210 212 212 213 280 345 0 6 9 14 11 11 9 8 5 356 349 336
267 266 273 270 271 274 277 275 279 283 293 291 298 310 306 310 293 314 316 316 320 324 326 272 245 238 222 208 216 227 225 225 223 219 224 248 301 346 0 5 7 2 2 2 4 1 358 357 353
268 269 270 272 275 273 272 278 277 281 286 289 300 298 310 309 307 308 309 308 312 310 311 286 250 250 238 224 224 237 237 227 228 228 226 245 270 317 341 353 355 353 357 356 356 358 356 358 355
264 269 273 273 273 274 275 276 276 276 283 290 294 293 297 303 304 303 303 304 307 306 303 292 265 244 242 232 237 249 246 239 230 228 229 233 247 304 331 342 350 352 356 356 350 351 352 346 350
269 272 272 273 273 273 275 278 279 282 290 289 291 292 294 297 300 302 301 300 298 302 294 292 267 243 242 233 243 256 259 256 238 235 223 208 227 296 331 337 340 345 348 349 342 342 346 344 338
269 269 272 269 271 274 282 277 277 288 290 291 293 293 295 298 302 296 299 301 297 297 292 294 276 257 247 241 247 258 259 251 239 233 210 211 229 280 331 336 338 339 341 341 339 333 327 325 326
269 269 266 267 271 275 279 260 283 286 287 287 287 290 293 295 299 305 301 302 301 295 294 299 290 270 257 251 251 259 250 253 245 223 220 218 238 296 330 331 330 334 336 335 333 326 316 313 313
266 264 267 271 266 275 277 272 282 282 284 287 292 294 285 284 290 290 287 301 292 285 287 290 285 279 264 256 246 259 238 255 233 219 258 241 246 301 328 330 331 332 333 331 331 325 319 312 309
263 266 268 270 276 276 275 276 279 275 285 288 291 285 286 290 285 280 277 300 292 289 291 291 284 282 271 269 249 264 248 233 240 229 255 253 272 312 324 328 331 334 333 331 331 326 322 315 310
267 268 271 275 274 274 275 279 282 277 283 291 293 298 302 309 299 294 299 302 297 292 293 293 286 277 271 269 252 241 254 245 266 298 283 262 304 324 334 340 337 336 335 334 333 331 324 319 313
262 265 268 276 276 274 275 281 284 285 288 293 298 301 299 302 299 298 297 299 295 291 295 295 277 263 268 256 264 248 235 264 286 290 312 352 341 336 336 338 339 340 340 342 343 342 334 328 322
257 260 268 270 273 265 273 280 282 271 268 280 283 295 300 274 284 273 292 297 303 290 286 284 281 262 272 266 264 280 303 312 298 311 318 329 337 342 344 345 346 346 351 3 14 13 4 342 324
258 263 267 268 270 273 274 278 282 257 242 241 287 293 298 264 264 264 283 294 296 303 314 308 280 271 273 194 169 163 220 235 327 328 334 344 350 350 350 350 351 359 16 32 35 41 34 3 332
255 264 262 265 267 269 271 282 235 291 232 281 283 267 260 266 261 262 273 291 297 306 336 330 350 347 346 138 136 132 84 80 32 21 11 5 357 353 354 2 13 29 38 46 47 50 57 66 48
258 259 259 261 265 267 245 259 239 228 283 288 264 242 248 329 333 338 342 27 30 44 8 32 10 15 89 107 97 98 83 65 38 21 10 9 8 6 9 21 35 46 61 61 70 71 82 111 123
253 249 254 254 255 250 268 275 240 238 291 248 241 240 333 349 360 23 66 65 55 67 70 27 48 61 84 88 67 39 37 58 16 9 10 11 12 11 19 32 42 66 60 73 74 72 97 115 129
249 245 244 246 251 260 262 274 283 231 288 266 212 314 359 21 35 49 64 55 63 72 62 70 79 74 82 73 61 49 43 23 13 5 17 28 29 37 48 36 51 57 71 85 64 75 78 129 155
244 243 245 251 260 261 265 273 251 239 261 299 204 295 61 63 55 66 80 66 68 74 69 89 91 84 80 76 64 37 9 16 24 28 38 35 42 55 45 52 61 79 91 93 100 101 102 123 170
242 242 242 242 247 253 260 266 276 285 271 294 49 109 97 91 70 73 79 82 81 81 90 91 86 84 84 76 63 41 41 33 33 40 45 49 63 60 64 63 89 101 99 97 96 98 113 138 168
243 239 240 247 243 248 254 264 272 282 283 284 68 117 119 101 84 88 90 89 87 92 91 90 89 87 83 79 71 63 51 55 51 48 52 53 57 61 62 78 110 117 109 75 66 98 125 150 152
250 246 238 239 236 244 248 250 282 289 315 315 109 122 116 104 85 94 98 91 94 90 92 94 92 92 88 83 85 66 66 57 53 49 57 67 65 72 87 122 126 75 71 48 69 102 97 195 176